EW0765 Weather Reports


Display with metric or nautical units.
time (UTC)temp
F
wind
direction
speed
MPH
gust
MPH
rain 1hr
in
rain 24hr
in
rain mn
in
humidity
%
barometer
mb
20260509041555 52 259 0.0 0.0 0.00 0.16 0.00 94 1009.0
20260509034552 52 258 0.0 2.0 0.00 0.16 0.16 94 1009.5
20260509033051 52 286 0.0 0.0 0.00 0.16 0.16 94 1009.5
20260509031550 52 286 0.0 0.0 0.00 0.16 0.16 94 1009.7
20260509030050 52 318 0.0 0.0 0.00 0.16 0.16 94 1009.8
20260509024549 52 284 0.0 0.0 0.00 0.16 0.16 94 1009.9
20260509023049 51 284 0.0 0.0 0.00 0.16 0.16 94 1009.8
20260509021549 51 336 0.0 1.0 0.01 0.16 0.16 93 1009.9
20260509020048 52 295 0.0 0.0 0.01 0.16 0.16 93 1009.8
20260509014548 52 296 0.0 0.0 0.01 0.16 0.16 93 1009.8
20260509013059 52 295 0.0 0.0 0.02 0.16 0.16 93 1009.8
20260509011547 51 293 0.0 0.0 0.02 0.15 0.15 93 1009.7
20260509010046 51 294 0.0 0.0 0.03 0.15 0.15 93 1009.8
20260509004608 51 289 0.0 0.0 0.04 0.15 0.15 93 1009.8
20260509003049 52 257 0.0 0.0 0.04 0.14 0.14 92 1009.7
20260509001545 52 340 0.0 0.0 0.04 0.13 0.13 92 1009.4
20260509000045 52 288 0.0 0.0 0.05 0.12 0.12 92 1009.9
20260508234546 52 288 0.0 0.0 0.05 0.11 0.11 91 1009.7
20260508233050 52 288 0.0 0.0 0.05 0.10 0.10 91 1009.7
20260508231543 53 288 0.0 0.0 0.05 0.09 0.09 91 1009.7
20260508230053 53 288 0.0 0.0 0.05 0.07 0.07 90 1009.7
20260508224542 53 288 0.0 0.0 0.06 0.06 0.06 90 1010.0
20260508223041 53 288 0.0 0.0 0.05 0.05 0.05 88 1009.8
20260508221542 53 288 0.0 0.0 0.04 0.04 0.04 87 1009.9
20260508220045 54 288 0.0 0.0 0.02 0.02 0.02 85 1010.0
20260508214546 54 288 0.0 0.0 0.00 0.00 0.00 83 1009.4
20260508213037 54 288 0.0 0.0 0.00 0.00 0.00 82 1009.5
20260508211537 54 299 0.0 0.0 0.00 0.00 0.00 82 1009.8
20260508210040 54 249 0.0 0.0 0.00 0.00 0.00 81 1010.0
20260508204536 55 261 0.0 4.0 0.00 0.00 0.00 82 1010.2
20260508203032 55 303 0.0 1.0 0.00 0.00 0.00 78 1010.2
20260508201531 56 219 0.0 10.0 0.00 0.00 0.00 75 1010.8
20260508200039 58 327 1.0 9.0 0.00 0.00 0.00 72 1010.7
20260508194530 58 285 0.0 5.0 0.00 0.00 0.00 70 1010.7
20260508193028 59 271 0.0 10.0 0.00 0.00 0.00 70 1010.7
20260508191529 59 290 0.0 10.0 0.00 0.00 0.00 67 1010.7
20260508190029 60 212 0.0 4.0 0.00 0.00 0.00 68 1010.8
20260508184549 60 251 0.0 6.0 0.00 0.00 0.00 70 1011.0
20260508183023 58 300 0.0 7.0 0.00 0.00 0.00 70 1011.1
20260508181539 59 269 0.0 13.0 0.00 0.00 0.00 68 1011.2
20260508180020 59 257 0.0 6.0 0.00 0.00 0.00 68 1011.5
20260508174519 58 219 1.0 7.0 0.00 0.00 0.00 70 1011.8
20260508173017 58 219 0.0 8.0 0.00 0.00 0.00 68 1011.9
20260508171517 58 211 0.0 5.0 0.00 0.00 0.00 65 1011.9
20260508170017 59 220 1.0 5.0 0.00 0.00 0.00 66 1012.1
20260508164516 59 225 0.0 4.0 0.00 0.00 0.00 65 1012.1
20260508163015 60 277 0.0 5.0 0.00 0.00 0.00 64 1012.0
20260508161515 60 196 0.0 5.0 0.00 0.00 0.00 66 1012.1
20260508160016 59 302 0.0 11.0 0.00 0.00 0.00 67 1012.3
20260508154513 59 221 1.0 7.0 0.00 0.00 0.00 65 1012.3
20260508153013 59 330 0.0 0.0 0.00 0.00 0.00 68 1012.1
20260508151512 59 246 0.0 4.0 0.00 0.00 0.00 65 1012.2
20260508150013 58 284 0.0 3.0 0.00 0.00 0.00 66 1012.3
20260508144507 57 297 0.0 3.0 0.00 0.00 0.00 68 1012.3
20260508143003 56 282 1.0 8.0 0.00 0.00 0.00 68 1012.3
20260508141609 55 236 0.0 9.0 0.00 0.00 0.00 70 1012.3
20260508140058 54 331 0.0 6.0 0.00 0.00 0.00 70 1012.5
20260508134600 54 279 1.0 6.0 0.00 0.00 0.00 71 1012.7
20260508133116 52 258 0.0 5.0 0.00 0.00 0.00 74 1012.6
20260508131549 51 271 0.0 0.0 0.00 0.00 0.00 78 1012.7
20260508130045 50 271 0.0 0.0 0.00 0.00 0.00 80 1012.8
20260508124543 49 268 0.0 0.0 0.00 0.00 0.00 82 1013.1
20260508123057 49 269 0.0 0.0 0.00 0.00 0.00 81 1012.9
20260508121542 49 275 0.0 0.0 0.00 0.00 0.00 82 1012.6
20260508120041 49 275 0.0 0.0 0.00 0.00 0.00 83 1012.5
20260508114541 49 274 0.0 0.0 0.00 0.00 0.00 82 1012.3
20260508113055 49 274 0.0 2.0 0.00 0.00 0.00 79 1012.1
20260508111543 48 253 0.0 2.0 0.00 0.00 0.00 80 1011.9
20260508110048 47 265 0.0 5.0 0.00 0.00 0.00 80 1012.0
20260508104539 47 291 0.0 0.0 0.00 0.00 0.00 80 1012.0
20260508103036 46 206 0.0 1.0 0.00 0.00 0.00 81 1012.0
20260508101537 46 277 0.0 0.0 0.00 0.00 0.00 83 1012.1
20260508100034 46 277 0.0 0.0 0.00 0.00 0.00 83 1011.9
20260508094533 46 276 0.0 0.0 0.00 0.00 0.00 83 1012.0
20260508093036 45 275 0.0 0.0 0.00 0.00 0.00 82 1012.1
20260508091531 46 276 0.0 0.0 0.00 0.00 0.00 82 1012.1
20260508090031 46 275 0.0 0.0 0.00 0.00 0.00 81 1012.3
20260508084529 46 246 0.0 0.0 0.00 0.00 0.00 81 1012.3
20260508083034 46 244 0.0 0.0 0.00 0.00 0.00 80 1012.4
20260508081527 46 244 0.0 0.0 0.00 0.00 0.00 79 1012.4
20260508080024 47 244 0.0 0.0 0.00 0.00 0.00 78 1012.3
20260508074532 47 259 0.0 0.0 0.00 0.00 0.00 76 1012.4
20260508073021 48 262 0.0 5.0 0.00 0.00 0.00 75 1012.5
20260508071522 48 250 0.0 6.0 0.00 0.00 0.00 74 1012.6
20260508070019 48 223 0.0 10.0 0.00 0.00 0.00 72 1012.6
20260508064517 48 232 0.0 0.0 0.00 0.00 0.00 72 1012.6
20260508063016 48 227 0.0 0.0 0.00 0.00 0.00 72 1012.5
20260508061518 48 269 0.0 0.0 0.00 0.00 0.00 73 1012.6
20260508060014 48 269 0.0 0.0 0.00 0.00 0.00 73 1012.6
20260508054514 48 268 0.0 0.0 0.00 0.00 0.00 73 1012.8
20260508053021 48 268 0.0 0.0 0.00 0.00 0.00 72 1013.0
20260508051510 48 267 0.0 0.0 0.00 0.00 0.00 71 1013.2
20260508050009 48 259 0.0 0.0 0.00 0.00 0.00 72 1013.2
20260508044509 48 259 0.0 0.0 0.00 0.00 0.00 72 1013.2
20260508043007 48 259 0.0 0.0 0.00 0.00 0.00 72 1013.2